Location: Alafon
(8.4500°N, 4.2333°E)
Time: 02:22:44
(UTC+00:00)

deb Explorer IX - Pass Details

Date: 02 August 2021
Orbit: 545 x 1092 km, 38.8° (Epoch: 16 September)

Event Time Altitude Azimuth Distance (km) Brightness Sun altitude
Rises 17:03:09 0° 339° (NNW) 3,513 ? 13.5°
Reaches altitude 10° 17:07:34 10° 9° (N) 2,702 ? 12.4°
Maximum altitude 17:10:08 12° 32° (NNE) 2,595 ? 11.8°
Drops below altitude 10° 17:12:46 10° 55° (NE) 2,822 ? 11.2°
Sets 17:17:37 0° 83° (E) 3,851 ? 10.0°
